This is the latest recevied weather packets stored in our database for station/object PD2BVG. If no packets are shown the sender has not sent any weather packets the latest 10 day(s).
| Time | Temp. | Humidity | Pressure | Rain* | Wind** | Luminosity | Snow |
|---|---|---|---|---|---|---|---|
| 1787864934 | 18.89° C | 99% | 1009.5 hPa | 9.4 mm | - | 0 W/m² | - |
| 1787864874 | 18.89° C | 99% | 1009.5 hPa | 9.4 mm | - | 0 W/m² | - |
| 1787864813 | 18.89° C | 99% | 1009.6 hPa | 9.65 mm | - | 0 W/m² | - |
| 1787864752 | 18.89° C | 99% | 1009.6 hPa | 9.91 mm | - | 0 W/m² | - |
| 1787864692 | 18.89° C | 99% | 1009.6 hPa | 10.41 mm | - | 0 W/m² | - |
| 1787864632 | 18.89° C | 99% | 1009.7 hPa | 10.92 mm | - | 0 W/m² | - |
| 1787864572 | 18.89° C | 99% | 1009.8 hPa | 11.43 mm | - | 0 W/m² | - |
| 1787864512 | 18.89° C | 99% | 1009.8 hPa | 11.68 mm | - | 0 W/m² | - |
| 1787864452 | 18.89° C | 99% | 1009.7 hPa | 12.45 mm | - | 0 W/m² | - |
| 1787864392 | 18.89° C | 99% | 1009.8 hPa | 13.72 mm | - | 0 W/m² | - |
| 1787864332 | 18.89° C | 99% | 1009.8 hPa | 14.48 mm | - | 0 W/m² | - |
| 1787864272 | 18.89° C | 99% | 1009.9 hPa | 15.49 mm | - | 0 W/m² | - |
| 1787864212 | 18.89° C | 99% | 1009.9 hPa | 16.26 mm | - | 0 W/m² | - |
| 1787864152 | 18.89° C | 99% | 1009.9 hPa | 16.76 mm | - | 0 W/m² | - |
| 1787864092 | 18.89° C | 99% | 1009.9 hPa | 17.53 mm | - | 0 W/m² | - |
| 1787864033 | 18.89° C | 99% | 1009.9 hPa | 18.29 mm | - | 0 W/m² | - |
| 1787863972 | 18.89° C | 99% | 1009.9 hPa | 19.81 mm | - | 0 W/m² | - |
| 1787863914 | 18.89° C | 99% | 1009.8 hPa | 21.34 mm | - | 0 W/m² | - |
| 1787863855 | 18.89° C | 99% | 1009.7 hPa | 23.11 mm | - | 0 W/m² | - |
| 1787863795 | 18.89° C | 99% | 1009.7 hPa | 25.4 mm | - | 0 W/m² | - |
| 1787863734 | 18.89° C | 99% | 1009.6 hPa | 26.42 mm | - | 0 W/m² | - |
| 1787863672 | 18.89° C | 99% | 1009.7 hPa | 26.42 mm | - | 0 W/m² | - |
| 1787863612 | 18.89° C | 99% | 1009.6 hPa | 26.42 mm | - | 0 W/m² | - |
| 1787863553 | 18.89° C | 99% | 1009.5 hPa | 26.42 mm | - | 0 W/m² | - |
| 1787863492 | 19.44° C | 99% | 1009.8 hPa | 26.67 mm | - | 0 W/m² | - |
* Rain latest hour (hover to see other rain measurements)
** Current wind speed in m/s (hover to see current wind gust speed)